Theta_e
318 318 320 322 321 321 321 322 320 319 318 312 313 315 315 317 316 317 317 316 316 318 316 314 314 317 320 319 322 320 321 323 320 320 321 330 332 334 338 338 338 339 340 341 340 340 339 340 340 340 338 338 339 339 339 339 339 339 340 339 339 339 339 338 338 337 335 335 333 331 328 326 326 325 322 319 317 314 317 322 324 326 329 330 330 330 329 329 331 332 333 333 331 330 327 326 326
319 319 321 321 320 323 322 321 319 315 313 310 313 316 315 316 316 318 317 317 319 321 319 316 316 320 321 321 322 321 325 327 326 328 330 332 334 337 338 339 339 340 341 341 341 340 340 340 340 340 338 336 337 338 338 338 338 339 340 340 339 339 339 338 338 337 335 335 333 329 327 326 326 325 321 318 316 314 318 323 325 327 330 330 330 329 329 329 330 331 332 332 330 330 327 326 325
319 320 321 321 320 322 322 321 317 311 310 309 312 316 315 317 317 317 316 318 321 320 319 318 319 320 319 320 321 321 327 328 327 329 331 334 337 338 338 339 339 341 340 341 341 340 341 339 339 339 337 336 336 337 337 338 338 339 340 340 340 339 338 338 338 336 336 335 333 329 326 326 326 323 320 319 315 313 318 324 326 328 329 329 330 329 328 329 329 331 332 331 330 329 327 325 324
319 320 320 324 322 321 322 320 317 311 310 309 311 316 317 317 317 316 317 321 320 316 317 319 320 320 319 320 320 322 327 327 328 330 332 335 337 337 337 338 340 341 340 341 341 341 341 339 339 339 337 335 335 337 337 337 337 338 339 339 340 339 338 338 337 336 336 335 333 329 326 326 326 323 320 319 314 309 313 323 327 328 328 328 329 329 329 329 329 331 331 331 329 327 325 325 325
318 320 320 324 325 321 322 319 318 313 311 311 312 315 317 317 317 317 319 321 318 314 315 319 321 321 322 323 322 323 325 326 328 330 333 335 335 336 336 338 340 340 340 341 341 342 341 338 338 339 337 336 334 336 336 335 335 338 338 338 338 338 339 338 338 337 335 334 332 330 328 327 326 323 321 318 313 306 307 320 328 328 327 328 328 328 329 330 330 331 330 329 328 327 326 325 325
318 319 319 321 321 319 320 316 314 313 314 316 314 316 317 316 317 318 319 319 317 315 313 316 320 320 323 325 324 326 325 326 329 330 333 335 334 336 336 338 341 341 341 341 341 341 341 337 337 338 338 336 333 334 335 334 334 337 338 337 337 337 337 337 338 336 335 334 333 331 329 328 327 323 321 318 312 305 304 317 327 328 327 327 327 328 329 330 331 331 330 329 328 326 325 325 324
320 321 321 320 319 319 319 314 313 314 314 316 316 316 316 316 317 318 318 318 316 313 312 315 319 319 321 322 324 326 326 327 330 331 333 335 335 336 336 337 341 341 341 341 341 341 341 338 337 338 338 337 334 333 334 334 334 335 337 336 335 336 336 337 337 336 334 334 333 332 330 329 327 324 322 318 312 304 303 316 326 327 327 327 326 328 328 329 330 329 329 328 327 325 324 324 323
320 321 321 322 321 321 319 315 315 316 314 312 314 315 315 316 316 318 318 318 316 314 316 318 317 317 319 319 322 326 324 326 329 330 332 334 335 337 337 338 341 340 341 340 341 342 340 338 338 339 338 337 335 335 334 334 334 334 336 335 335 337 336 336 336 335 334 334 334 332 331 329 328 325 322 319 312 304 302 314 325 327 326 327 326 327 327 328 329 328 328 326 325 324 324 324 324
317 319 320 322 320 319 316 315 316 316 315 313 313 313 314 314 314 317 318 316 314 314 318 318 315 315 318 319 321 324 323 324 327 330 331 334 336 338 338 339 342 341 341 340 341 342 340 339 338 339 338 337 336 336 334 333 334 335 335 335 336 336 335 335 335 335 334 334 334 333 332 330 328 325 322 319 314 305 300 307 320 326 327 326 326 326 327 327 328 327 325 324 324 324 324 324 324
317 319 321 323 318 316 314 314 316 315 315 313 313 313 313 313 312 314 316 316 314 315 317 315 313 315 318 319 320 321 322 324 327 330 331 335 336 338 340 340 342 341 341 340 341 341 341 340 339 339 338 338 337 337 336 333 333 334 334 334 335 335 334 335 335 334 334 333 333 333 333 331 329 326 323 319 314 307 301 301 310 320 324 326 326 326 326 325 325 324 323 323 325 325 324 324 323
319 319 321 321 315 313 312 313 316 316 315 313 313 312 312 312 312 313 314 314 314 316 317 314 315 317 317 319 320 318 319 324 329 332 331 335 336 338 340 341 341 340 341 341 341 340 340 340 339 340 339 338 338 337 336 334 333 334 334 333 334 335 334 334 334 334 333 332 332 334 334 332 329 326 323 320 316 309 303 301 302 308 313 320 324 324 324 324 323 323 323 324 324 323 323 322 321
320 320 321 318 314 314 314 314 315 316 315 314 314 312 311 311 312 313 313 314 314 315 317 315 317 318 318 319 318 317 318 325 330 332 332 334 336 338 340 341 341 340 341 340 341 340 340 340 340 340 339 339 339 338 337 336 333 333 334 333 334 334 334 334 333 333 332 331 332 334 334 332 330 327 324 320 318 314 310 305 303 303 305 310 317 321 322 321 321 320 321 320 319 318 318 317 318
321 322 321 317 316 318 316 316 315 317 315 314 315 311 310 311 313 314 313 314 314 316 316 314 315 316 318 317 315 316 320 327 330 331 332 333 335 337 339 340 340 340 340 340 340 340 341 341 340 340 339 339 339 339 337 336 334 333 333 332 334 334 334 333 333 333 332 331 332 333 333 333 330 328 325 321 320 319 317 314 309 306 305 305 309 314 316 314 314 313 311 309 308 307 307 310 315
320 321 321 317 315 318 317 316 315 314 314 314 314 309 309 311 312 312 313 314 315 315 313 311 314 316 317 316 315 316 322 328 329 330 331 333 334 335 338 339 340 339 339 339 340 341 341 340 339 340 339 339 339 339 338 337 336 334 333 332 334 335 333 333 333 333 332 332 333 333 333 332 331 329 326 323 321 321 320 319 316 312 308 304 303 305 306 305 305 304 302 300 300 300 301 306 313
318 319 321 319 315 316 316 317 316 314 315 315 312 309 310 310 309 310 313 314 314 312 310 310 311 315 316 316 316 315 323 328 329 330 331 333 333 336 338 339 340 340 339 338 338 340 340 339 340 339 339 339 339 339 339 338 337 335 334 331 332 335 333 332 333 333 332 332 332 333 332 332 332 330 327 324 322 322 321 320 319 317 312 306 302 301 301 301 301 300 299 299 299 299 300 304 310
316 319 321 319 316 316 315 316 317 314 315 315 310 309 312 311 308 310 311 311 313 310 311 312 310 313 314 314 314 313 323 329 329 331 332 333 333 336 339 338 339 338 338 337 338 339 338 339 340 339 339 339 339 339 339 338 338 337 336 332 330 332 332 332 333 333 333 333 332 332 332 332 332 330 327 325 323 322 322 321 320 318 314 309 304 301 301 300 300 299 299 299 299 299 299 301 304
314 319 320 316 315 315 316 316 316 315 315 314 309 309 313 313 309 309 309 309 313 312 311 313 311 311 312 313 311 311 323 329 329 332 332 333 333 334 337 337 337 336 337 337 338 339 338 339 338 338 339 338 338 338 338 338 338 337 337 334 331 331 332 332 333 333 333 333 333 332 332 332 332 331 328 325 323 323 322 322 321 319 316 312 308 305 303 302 300 300 299 299 299 299 299 299 299
316 320 318 314 316 316 317 318 315 315 316 314 311 311 314 314 311 310 311 311 313 312 312 313 311 311 311 311 310 312 323 328 328 331 331 333 333 333 334 334 336 335 335 335 336 338 339 339 337 337 337 338 338 338 338 338 338 338 338 336 333 333 332 332 333 333 333 333 333 333 333 333 332 331 329 325 323 323 323 323 322 320 317 314 311 309 307 306 303 302 300 300 300 300 300 300 300
317 320 316 315 319 317 315 316 314 314 315 314 312 311 312 314 313 311 313 314 313 313 314 313 312 313 312 311 311 314 323 327 326 330 332 332 333 334 333 334 335 334 333 333 333 335 337 338 337 337 337 337 336 337 338 338 338 338 338 337 336 335 333 333 333 333 333 333 333 333 333 333 332 331 329 327 324 323 323 323 323 321 319 316 313 311 309 308 306 304 303 303 305 306 307 307 307
314 316 315 316 318 315 312 313 313 311 312 314 312 310 311 312 312 312 313 315 313 314 315 314 314 315 313 313 313 315 322 326 326 329 331 331 332 334 334 334 334 333 332 331 331 332 334 335 336 337 336 336 335 335 336 336 336 338 338 338 337 336 335 334 335 334 334 333 333 333 333 333 332 331 330 328 325 323 324 323 323 322 319 317 315 312 309 308 307 306 307 309 311 312 312 312 312
314 314 316 315 313 315 312 310 311 309 309 313 312 310 311 311 310 312 314 314 315 315 315 315 315 315 315 314 315 318 322 324 325 328 330 331 332 333 334 333 332 331 332 332 331 332 333 334 335 335 334 333 332 333 335 335 336 338 338 337 337 337 336 335 335 335 335 334 334 333 333 333 332 331 330 329 326 324 324 324 322 321 319 316 315 313 310 309 310 310 312 313 314 314 313 311 311
314 313 313 311 311 315 312 308 309 308 308 311 312 312 312 311 310 312 313 314 315 315 315 315 314 314 314 315 317 319 322 324 325 326 329 331 331 332 332 331 330 331 332 332 332 333 333 334 334 333 333 332 331 331 334 336 336 338 338 337 337 336 336 336 335 335 335 335 334 334 333 333 332 331 330 329 326 324 325 324 321 321 319 317 315 315 313 312 313 313 314 314 314 314 313 312 311
315 313 310 309 310 313 310 308 309 307 310 312 312 312 311 311 313 311 311 314 314 312 311 312 312 311 311 315 317 318 321 324 324 325 328 331 331 331 330 329 329 331 332 331 332 334 334 334 334 333 333 332 331 330 332 334 335 337 338 337 337 336 335 336 336 335 335 335 334 334 333 333 331 330 330 329 327 325 325 324 323 322 320 318 316 315 315 314 314 314 314 314 314 314 314 313 312
315 315 311 309 308 310 309 307 307 306 310 311 310 311 311 312 313 309 310 314 313 311 309 310 310 308 309 314 316 318 322 323 324 324 326 328 330 330 329 328 329 330 331 331 332 332 332 332 331 331 331 331 331 330 330 332 333 335 337 337 337 336 334 334 335 335 335 335 334 334 333 333 332 331 330 330 328 327 327 325 323 322 321 320 317 317 316 315 314 314 314 314 314 314 313 312 311
315 314 312 310 309 309 307 305 306 306 308 308 309 311 312 311 310 309 311 313 312 312 311 310 310 308 309 312 315 318 321 323 323 323 324 324 325 327 328 327 328 330 330 330 331 331 331 331 330 330 329 329 328 327 329 330 331 332 335 336 337 336 334 333 335 335 335 335 334 334 333 332 333 331 330 330 328 326 326 325 323 323 323 322 320 319 318 317 315 313 313 313 313 312 311 310 309
314 313 312 311 311 309 307 307 307 308 308 308 311 313 311 309 308 311 313 314 313 311 311 311 310 310 311 312 314 318 320 322 322 322 323 321 320 323 325 327 328 328 327 327 329 329 329 329 329 328 327 326 325 324 326 328 330 330 332 335 336 336 335 334 335 336 335 335 334 334 333 333 332 332 330 330 329 327 325 322 321 321 322 322 321 320 319 317 315 314 313 312 312 310 308 308 307
311 311 312 312 311 309 308 310 309 309 309 309 312 313 311 309 309 314 315 312 310 310 310 310 310 311 312 312 313 316 318 319 321 321 321 319 318 320 321 324 325 325 324 325 326 326 326 326 326 326 326 325 324 324 324 326 328 329 331 333 333 333 333 333 334 334 334 334 334 334 334 333 332 332 331 330 330 328 325 321 320 320 320 320 321 320 319 317 315 314 313 312 311 308 305 306 304
310 311 314 313 312 311 310 312 311 311 311 309 312 313 311 310 310 315 315 308 308 311 312 311 311 312 313 313 312 314 315 316 318 318 319 319 319 319 318 320 321 322 322 324 324 324 324 323 323 322 322 323 323 324 324 325 328 328 329 330 331 331 330 331 331 331 333 334 334 334 333 333 332 331 331 331 329 328 325 323 320 319 319 319 319 320 319 317 315 314 314 312 310 307 305 304 302
310 312 315 315 314 314 312 312 310 311 313 309 311 313 313 313 313 315 313 308 308 310 312 312 312 313 313 313 311 313 314 314 315 315 318 320 319 318 318 318 318 319 319 320 320 320 320 318 317 317 316 316 316 319 321 324 326 327 328 328 328 327 328 330 330 328 331 332 333 334 333 332 333 331 331 331 329 329 327 324 321 319 318 318 318 319 318 316 314 314 313 311 308 305 304 302 300
313 313 315 316 316 315 313 311 310 312 312 308 311 313 315 317 315 315 311 308 310 311 313 313 312 313 312 312 311 312 314 313 314 314 315 317 318 317 317 318 318 317 316 316 316 315 315 315 314 314 313 312 312 313 316 320 324 325 326 327 327 328 329 330 329 328 330 331 332 333 333 333 333 331 331 330 329 329 328 325 322 319 317 317 318 318 317 315 313 313 312 309 305 302 301 299 297
314 313 314 316 314 314 313 310 311 314 311 308 312 313 315 318 316 314 309 307 310 311 313 313 313 312 311 312 311 312 313 313 313 313 313 314 315 315 316 317 318 318 316 315 315 314 314 314 313 312 311 312 314 314 315 318 322 323 323 325 328 329 328 328 329 329 331 332 332 333 334 333 332 331 330 330 330 329 328 325 321 319 318 318 318 318 317 314 313 313 312 309 304 300 299 296 294
314 312 314 316 313 314 315 310 310 314 311 309 313 314 315 317 316 312 306 306 309 311 313 313 313 312 311 311 311 311 312 313 312 312 312 312 312 313 315 316 317 317 316 315 315 314 313 313 312 311 311 313 315 316 316 318 321 322 322 325 328 327 326 328 329 330 332 332 333 333 333 332 332 331 330 329 329 329 327 324 321 320 319 318 318 317 316 315 314 312 310 309 305 301 298 294 292
315 313 313 315 314 314 314 310 308 310 311 311 313 314 316 316 315 311 306 307 309 310 313 313 313 312 311 311 310 311 311 312 312 311 311 310 311 312 313 314 315 315 315 314 313 313 312 311 310 310 312 314 315 315 316 318 320 321 321 324 327 326 327 329 329 330 331 332 333 332 331 331 331 331 330 329 329 329 327 324 323 321 319 318 318 317 316 315 315 313 308 307 306 303 298 294 292
314 314 314 314 314 312 312 312 309 308 311 313 313 313 315 316 315 313 311 309 309 311 313 313 314 313 312 311 310 310 311 311 312 313 311 309 310 311 312 313 313 313 313 312 312 312 311 310 310 311 313 314 314 314 317 319 320 320 321 323 326 326 327 328 328 329 330 330 331 332 331 330 331 330 329 329 329 328 326 325 323 321 319 318 317 316 316 315 315 314 308 303 304 303 298 294 292
312 314 313 313 313 312 313 314 311 309 311 313 314 314 315 315 316 315 314 312 310 311 312 313 313 313 312 312 311 311 311 311 312 313 311 309 309 310 311 312 312 312 311 312 312 311 311 310 310 311 313 314 314 314 316 319 319 320 321 322 323 324 325 325 326 326 327 329 329 330 330 329 329 329 328 329 329 327 325 324 322 320 318 318 317 316 315 315 314 312 308 304 303 300 297 294 293
313 315 314 312 312 312 314 314 310 310 312 314 314 315 315 315 316 316 315 314 311 311 312 312 312 312 312 312 312 312 311 311 312 312 311 309 308 308 309 310 311 311 311 311 311 310 310 310 311 311 311 313 314 314 315 318 318 319 319 320 321 322 323 323 323 324 325 326 327 327 326 327 328 328 327 327 328 327 325 324 322 320 319 318 318 317 315 314 313 311 309 306 301 297 294 293 293
315 316 314 315 314 312 314 314 309 308 312 315 315 315 315 315 316 316 315 314 311 311 311 312 312 312 313 313 313 313 313 313 313 310 309 309 307 307 308 309 310 310 310 311 311 311 310 310 311 311 311 313 314 314 315 316 317 318 318 317 318 319 321 321 322 323 323 323 324 324 324 326 327 326 325 326 326 327 325 324 322 321 320 319 319 318 316 314 312 311 308 304 300 297 293 291 292
314 314 314 315 315 313 314 313 309 308 311 315 315 314 315 315 315 315 315 314 313 313 313 313 314 314 314 314 314 314 314 314 313 310 309 308 307 306 306 308 309 310 311 312 311 310 310 310 310 310 311 313 314 315 315 315 316 318 318 318 318 318 320 321 323 323 322 322 323 323 323 325 325 324 325 326 326 326 325 324 322 321 320 320 319 317 315 313 311 310 307 301 297 296 294 292 292
314 315 315 314 315 314 313 311 309 309 311 315 314 314 314 314 315 315 315 315 314 315 314 315 315 315 315 314 315 315 314 314 313 311 309 308 307 306 306 307 309 310 311 312 311 311 310 310 310 310 310 312 313 314 315 315 316 317 319 319 319 319 319 321 322 322 321 322 322 322 323 324 323 323 324 325 325 324 324 323 322 321 320 319 318 316 313 312 310 309 307 302 296 294 294 293 293
315 316 314 314 316 315 310 311 310 309 310 313 313 313 314 314 314 315 315 315 315 314 314 314 314 314 314 315 315 315 315 315 314 312 310 308 307 306 306 308 309 310 311 312 311 310 310 310 310 309 309 312 313 314 315 316 316 317 318 318 318 319 319 319 320 321 321 321 322 322 322 322 322 322 323 323 323 323 323 323 321 319 319 318 318 317 314 312 310 307 305 303 300 295 293 293 294
316 316 315 315 317 315 311 312 312 311 311 310 312 314 315 316 316 316 316 314 313 313 313 313 314 313 313 313 314 314 314 314 314 313 311 308 307 307 306 307 309 310 312 312 311 310 310 309 310 309 309 312 313 314 315 316 316 315 315 315 314 315 315 314 316 317 319 319 320 321 321 321 321 322 322 322 322 322 322 321 320 319 318 318 318 318 315 312 310 307 306 305 303 300 295 293 294
315 316 316 315 314 314 314 314 314 313 313 312 312 312 313 316 316 317 317 315 315 315 315 315 315 315 314 313 313 313 313 313 313 312 311 309 308 307 307 307 309 310 311 311 310 310 309 309 309 308 309 311 312 314 315 315 315 315 314 313 311 311 310 311 314 317 318 318 319 320 320 320 320 321 321 321 321 321 321 320 319 319 318 318 317 317 315 312 310 308 308 306 304 301 298 295 294
314 315 315 314 314 315 315 315 315 313 313 313 312 312 313 315 314 315 317 316 316 316 316 316 316 316 316 315 314 314 313 312 312 311 310 310 308 308 307 307 308 310 311 311 310 309 309 309 309 308 309 311 311 313 314 314 314 314 315 315 313 313 312 313 316 317 318 318 318 318 318 319 319 319 320 320 320 320 320 319 319 319 318 317 316 315 314 313 311 309 308 305 303 302 300 298 295
315 315 314 313 314 316 316 316 315 315 315 314 313 315 315 315 315 315 316 316 316 316 316 316 317 317 317 316 315 315 313 312 312 311 309 309 309 308 307 307 308 309 310 310 309 309 309 309 308 308 309 311 311 312 313 313 314 314 314 315 315 315 315 315 315 315 316 317 317 317 318 318 318 318 319 319 319 319 319 318 318 317 316 316 314 314 313 313 311 309 307 304 303 303 302 301 298
315 312 311 312 314 316 316 316 316 316 315 315 316 316 314 314 316 316 316 316 316 317 317 318 319 319 317 316 314 313 312 311 310 310 309 309 309 307 307 307 307 309 310 310 309 309 309 308 308 307 309 310 311 312 312 312 313 314 313 313 313 312 312 313 313 314 315 316 316 317 317 317 317 317 318 318 318 317 317 317 316 315 314 313 312 311 312 312 311 309 306 305 304 304 303 303 301
312 309 311 312 314 314 315 316 316 315 315 316 318 316 311 312 315 315 314 316 318 319 318 318 319 319 317 315 313 311 310 309 309 308 308 308 308 307 306 306 307 308 310 309 309 308 308 308 307 307 308 309 311 311 311 311 311 312 311 311 311 310 309 310 311 312 313 313 314 315 315 316 316 316 316 316 316 316 315 315 315 313 311 309 308 308 309 310 310 308 306 305 304 304 303 303 300
311 313 315 315 314 314 315 315 315 316 316 316 318 317 312 311 314 316 315 316 319 320 318 317 319 320 318 313 311 310 308 308 307 305 306 307 306 305 305 306 306 308 309 309 308 308 308 307 307 307 306 307 309 309 309 310 309 309 310 310 310 311 311 311 311 310 310 311 312 312 312 312 314 314 314 315 315 314 313 312 311 308 306 305 305 306 308 308 308 306 305 305 304 303 303 301 299
312 317 318 316 314 315 316 316 315 316 316 315 315 316 315 312 313 316 316 315 315 317 318 318 320 322 320 314 310 309 307 307 306 305 305 305 305 304 304 305 306 308 309 308 308 308 307 307 306 306 304 306 308 308 309 309 308 309 309 309 309 311 313 313 314 313 312 313 313 312 310 309 311 311 311 313 312 310 308 307 305 303 302 303 304 305 306 306 306 305 304 304 303 302 302 300 298
314 317 316 315 314 314 316 317 317 317 316 313 311 314 315 314 314 315 315 315 314 314 316 317 319 321 320 316 311 308 308 308 306 306 305 305 305 305 305 305 306 308 308 308 308 307 307 306 306 305 304 304 307 307 307 308 308 308 309 309 309 310 312 313 315 315 314 314 315 313 310 309 310 309 308 310 308 305 303 301 300 301 302 303 303 305 306 306 305 304 304 303 302 301 300 298 295
314 316 315 315 314 315 316 315 313 313 314 311 308 313 316 315 315 315 315 315 315 315 315 316 317 317 318 317 312 309 309 310 308 306 305 305 306 306 305 306 307 308 308 308 307 307 307 306 306 306 303 303 305 305 305 306 307 308 308 308 309 310 311 311 313 315 315 314 315 314 313 312 312 311 309 308 305 301 299 298 299 301 302 303 304 304 304 304 304 303 303 301 299 298 296 293 291
315 317 316 315 314 315 314 313 312 312 314 311 308 313 317 316 315 315 314 315 317 316 316 315 314 314 315 314 312 309 308 310 309 307 305 306 306 305 305 306 307 308 307 307 307 306 306 306 305 306 303 302 304 304 304 305 306 307 307 307 308 309 310 310 311 311 312 314 314 314 313 312 311 309 307 305 301 298 296 297 299 301 302 303 303 303 303 303 302 301 299 296 295 293 291 290 289
315 315 315 315 315 312 311 312 312 311 313 313 311 314 316 316 316 315 314 315 316 315 315 314 314 314 315 315 315 312 308 309 311 310 306 305 305 305 305 306 307 308 307 307 307 306 306 305 305 305 303 302 303 303 304 304 305 306 306 305 306 307 308 308 307 307 309 312 313 311 311 310 309 307 305 301 297 295 294 295 297 300 301 301 302 302 301 299 297 294 292 291 290 289 289 289 288
313 314 315 314 314 313 312 312 310 310 312 313 314 314 313 313 314 314 314 316 316 313 312 312 314 315 315 318 318 314 311 312 314 312 308 305 304 304 304 305 306 307 307 307 307 306 305 305 304 305 304 302 303 303 303 303 304 304 304 304 305 306 305 305 306 306 307 309 309 309 308 306 304 303 302 298 294 292 292 293 294 295 296 296 296 296 295 293 291 290 289 289 289 288 288 288 288
313 315 315 313 313 313 312 312 313 313 314 315 315 315 313 313 314 315 314 315 314 313 313 313 314 316 316 317 317 314 313 314 313 311 307 305 305 304 303 305 306 307 307 307 307 305 305 305 304 304 304 302 302 303 303 302 303 303 303 303 304 304 304 305 306 307 306 306 307 307 305 302 300 299 299 297 293 291 291 291 291 291 291 291 291 290 290 289 289 289 289 288 288 287 288 288 287
312 314 315 314 315 315 313 313 314 315 315 316 316 315 313 314 315 315 315 316 315 315 315 314 314 315 316 316 316 314 314 315 313 311 307 304 304 303 303 304 305 306 307 306 306 305 304 305 304 303 303 302 302 302 302 302 303 303 303 303 303 303 303 303 304 305 305 305 307 305 303 301 299 297 295 294 292 291 290 290 289 289 289 289 289 289 288 288 288 288 288 288 287 287 287 287 286
311 312 313 313 314 316 315 314 313 314 315 315 316 315 315 316 316 315 316 317 317 317 317 317 316 315 315 316 317 316 315 316 316 314 310 305 304 303 302 303 304 305 306 306 306 305 304 304 303 302 302 302 301 301 302 302 303 302 302 302 302 302 302 302 303 304 305 305 306 305 302 301 299 295 292 292 291 290 290 289 289 289 289 289 288 288 288 288 288 288 287 287 287 287 287 286 285
312 313 314 313 313 314 314 314 313 313 315 314 316 317 316 316 318 317 316 317 317 317 318 319 318 316 315 316 317 317 316 318 318 316 311 306 304 303 302 302 303 304 305 306 305 305 304 304 303 302 301 301 300 300 301 301 302 302 301 301 302 302 301 301 301 302 302 303 303 303 301 299 297 294 291 290 290 290 289 289 289 289 288 288 288 287 287 287 287 287 287 287 287 286 286 285 285
314 314 315 315 315 314 315 316 314 312 315 315 316 318 316 318 320 317 315 318 318 317 317 318 319 318 317 314 312 313 315 316 314 310 307 305 303 302 301 301 302 303 304 305 305 304 303 303 303 302 301 301 300 300 300 300 301 301 301 301 302 301 300 298 298 298 299 300 300 300 298 296 295 292 290 290 290 289 289 289 288 288 288 287 287 287 287 287 287 287 287 286 286 285 285 285 285
Wind_Speed
5 1 1 2 4 3 2 1 0 2 1 1 1 1 3 1 2 2 4 3 2 3 1 1 2 3 1 2 2 3 3 2 2 2 1 4 4 6 6 5 6 7 10 9 9 11 11 12 13 11 10 8 10 11 11 12 12 11 12 12 13 13 14 14 15 15 15 15 15 14 13 14 15 15 16 16 16 16 17 17 17 19 19 18 18 18 17 17 17 17 17 16 17 17 18 18 19
4 1 2 3 3 2 0 1 1 1 1 1 2 0 3 2 2 4 4 2 2 4 3 4 4 2 2 3 2 1 1 3 5 3 3 4 6 6 4 6 8 10 11 9 9 10 10 11 13 12 10 9 10 11 11 12 12 11 11 12 12 13 14 14 14 14 15 15 14 14 13 13 14 15 15 15 16 16 17 17 18 19 19 19 19 18 18 17 18 18 17 17 18 18 18 18 19
3 1 4 3 2 1 1 1 1 1 1 1 2 2 3 4 5 4 3 3 6 6 5 5 4 1 1 2 1 2 1 3 2 3 4 5 7 6 5 6 9 11 10 9 10 10 10 11 13 12 10 10 12 12 11 12 12 11 11 11 11 12 13 13 13 14 14 14 14 14 13 13 14 15 15 15 15 16 17 18 18 19 19 19 19 18 18 18 18 18 18 17 18 18 18 19 19
3 3 4 2 1 1 1 0 1 1 1 1 1 4 4 4 5 5 5 6 7 4 4 4 3 1 4 3 0 1 1 3 2 2 4 6 6 6 5 8 11 11 10 10 11 10 9 11 12 12 10 10 12 12 12 12 12 12 12 12 11 11 12 12 13 13 13 13 13 13 13 13 15 15 16 15 15 15 16 18 19 19 20 19 19 19 19 19 19 18 18 18 18 18 18 19 19
2 1 3 4 2 1 1 1 1 2 1 1 0 5 5 4 6 6 7 7 5 2 1 2 2 2 2 1 1 1 2 4 3 1 3 6 5 5 6 10 12 10 11 10 11 11 10 12 12 11 10 9 11 12 11 11 12 12 12 12 11 11 11 12 12 13 13 12 12 12 13 13 15 16 16 15 15 15 15 18 19 19 20 19 19 19 20 20 19 19 19 18 18 18 19 19 19
5 5 4 2 1 1 1 1 1 0 3 1 1 5 6 5 6 9 8 5 3 2 1 3 1 2 2 1 1 2 2 2 4 3 3 6 5 4 8 11 10 10 10 10 11 11 12 13 13 12 10 8 9 11 11 11 12 13 12 11 11 11 11 11 12 12 11 11 11 12 12 13 15 15 15 15 14 14 15 18 20 19 19 19 19 20 20 20 19 19 19 18 18 18 18 18 19
1 2 4 4 3 1 1 1 0 1 2 2 2 4 6 6 7 10 9 6 4 2 2 2 1 2 2 2 2 0 1 1 2 4 5 5 6 7 10 10 10 12 10 11 11 11 13 14 14 12 10 9 8 10 10 11 12 12 12 12 11 11 11 11 11 11 11 11 11 12 12 13 14 15 15 14 14 14 15 18 20 19 19 19 20 20 19 19 19 18 18 18 17 17 17 18 19
1 1 1 0 2 1 0 1 1 1 2 1 3 1 3 6 7 8 9 5 3 3 3 3 3 3 2 1 2 3 2 2 1 4 7 6 7 9 11 11 12 13 12 12 11 11 13 14 14 12 11 9 9 9 10 11 12 12 11 12 11 10 11 11 11 11 10 10 11 11 11 12 13 14 14 14 14 14 15 18 19 20 19 19 19 19 19 19 18 18 17 17 17 17 18 18 18
3 2 1 1 1 1 1 0 1 1 1 1 2 1 0 3 4 6 8 4 1 2 3 4 3 2 3 4 1 3 3 3 3 5 8 6 7 11 13 12 12 13 12 13 12 12 14 15 14 13 11 10 10 10 9 10 11 11 11 12 11 10 11 11 10 10 10 10 10 10 10 12 13 13 14 14 14 14 15 17 19 20 19 19 19 19 19 18 17 17 16 16 17 17 18 18 17
2 2 1 1 1 1 1 1 1 1 1 1 2 3 2 3 4 4 6 5 2 2 3 3 2 1 3 5 2 2 4 5 6 5 7 6 6 10 12 10 12 13 12 13 12 12 14 14 13 13 12 10 10 10 9 9 10 11 11 12 11 11 12 11 10 10 10 10 9 9 10 11 12 13 13 14 14 15 15 16 18 19 19 19 19 19 18 18 17 17 16 17 17 17 17 17 17
0 2 0 1 2 2 1 2 2 1 2 1 2 3 3 5 5 4 4 3 2 2 3 3 3 3 3 3 2 3 5 7 6 5 7 7 5 9 10 9 11 12 12 12 11 12 13 14 14 13 13 12 11 11 10 9 9 11 11 12 12 12 12 11 10 10 10 9 9 9 10 11 12 12 13 13 14 15 16 17 17 18 18 19 19 19 18 18 18 17 17 17 16 16 15 16 16
1 2 1 2 2 1 0 2 3 2 1 2 5 5 3 6 6 5 6 4 4 4 5 6 2 2 4 2 2 4 5 7 7 5 7 7 6 9 11 9 10 11 12 12 11 12 13 14 15 14 13 13 12 11 10 9 8 9 11 12 12 12 11 11 11 10 10 9 9 10 10 11 11 11 12 13 14 15 16 17 17 17 17 18 18 18 18 17 17 16 16 16 15 15 15 16 16
0 2 3 3 0 0 1 1 2 1 2 4 5 5 4 8 7 5 6 3 4 6 4 4 1 1 3 2 3 4 6 9 8 7 8 7 6 10 12 11 11 10 12 13 12 12 12 13 14 14 14 13 12 12 11 10 9 8 11 12 12 12 12 12 11 11 10 10 10 10 10 10 11 11 12 13 14 14 15 16 17 17 17 17 17 17 17 17 16 16 16 17 17 17 18 18 18
0 1 1 2 1 0 2 1 3 3 4 5 4 6 5 5 4 2 4 6 6 4 1 2 1 2 2 2 3 4 8 11 10 8 10 9 8 11 11 12 11 10 11 13 13 11 11 12 13 14 14 14 13 13 12 12 12 10 10 12 14 13 12 12 12 11 11 11 11 10 10 10 10 11 12 12 13 14 15 15 16 16 17 17 17 16 16 16 17 17 18 19 20 20 20 19 19
0 1 1 3 2 2 3 1 2 5 3 7 5 6 6 2 0 3 4 6 3 3 2 2 2 2 1 3 3 4 10 14 12 11 11 10 11 12 12 13 11 11 11 13 15 12 10 11 11 13 14 14 13 14 15 13 13 12 11 12 13 13 12 12 12 11 11 11 11 10 10 10 10 10 11 12 12 13 14 15 15 15 16 17 17 17 17 17 18 19 20 20 21 21 21 20 20
0 1 1 2 3 2 4 2 2 4 3 7 4 4 7 3 1 3 1 3 1 3 1 3 3 2 2 1 3 6 12 15 14 13 12 11 12 12 12 14 13 13 12 11 14 13 12 12 10 11 12 13 13 14 15 16 15 14 13 12 13 13 12 12 12 11 11 11 11 10 10 10 10 10 11 12 12 13 13 14 15 15 16 17 17 17 17 17 18 19 19 20 21 21 22 22 21
1 2 2 2 3 3 5 5 4 2 2 6 5 6 9 5 2 2 1 2 1 3 3 3 2 2 2 3 4 6 13 16 15 15 13 12 11 11 12 14 14 14 13 12 14 14 15 15 11 11 11 11 12 13 13 15 16 16 14 14 14 14 13 13 12 12 11 11 11 10 10 10 11 11 12 12 12 12 13 13 14 15 15 17 17 17 18 18 19 19 20 20 21 22 22 23 22
2 2 3 3 3 3 5 8 5 0 2 8 7 8 9 6 5 3 2 4 2 2 5 4 3 5 3 2 4 8 15 15 15 15 14 14 12 11 12 12 13 13 13 13 14 15 16 16 15 13 11 10 11 12 12 13 14 15 15 15 15 15 14 14 13 12 12 12 12 11 10 10 11 12 12 13 13 13 13 13 13 14 15 16 17 18 18 19 19 20 21 21 21 22 24 24 24
1 1 3 3 3 2 2 5 5 1 1 7 7 5 5 4 5 5 5 5 4 6 6 5 6 8 7 5 5 10 14 13 14 15 15 17 16 14 12 11 12 12 14 14 13 15 15 15 16 15 14 12 12 11 12 12 12 13 14 15 15 15 15 15 14 13 13 13 13 12 10 10 11 13 14 14 14 14 13 12 13 14 14 15 17 19 19 20 20 21 22 23 24 25 26 26 25
0 1 4 2 1 1 1 2 3 2 2 5 8 4 2 1 3 4 5 4 4 9 8 6 8 10 10 9 9 11 14 14 14 15 17 17 17 18 16 16 15 13 16 16 15 16 15 15 16 17 16 15 15 13 12 12 13 13 13 14 15 15 14 15 15 14 15 14 13 12 11 11 11 13 15 14 14 15 13 12 13 14 14 15 16 19 20 21 22 23 24 24 25 27 28 27 26
1 1 2 2 1 1 2 2 2 2 2 3 6 5 4 2 2 4 5 5 6 10 10 9 10 8 9 11 11 13 15 15 16 17 18 18 18 18 18 19 17 16 19 18 17 17 16 17 17 17 16 15 16 16 14 14 16 16 13 14 15 14 14 15 15 15 16 15 14 12 12 12 12 15 16 15 16 16 14 14 14 15 16 16 17 20 21 22 23 24 24 25 25 26 28 28 27
2 1 2 3 1 1 3 1 1 0 1 2 5 5 4 4 3 5 6 9 6 3 4 7 8 1 6 11 13 13 14 16 18 19 19 19 18 18 18 17 18 20 23 19 18 19 17 18 18 17 16 15 15 16 16 15 14 17 16 16 17 15 15 14 14 16 16 16 14 12 13 13 13 16 18 17 18 18 17 17 17 17 17 19 19 21 22 23 23 24 24 25 25 25 26 26 27
0 1 1 1 1 2 2 1 2 2 2 5 5 3 4 4 5 3 7 13 4 4 2 2 3 3 4 9 13 13 14 16 19 21 20 20 20 20 18 18 20 23 24 22 21 21 20 19 18 17 16 16 16 17 17 15 13 16 17 18 19 18 17 14 13 15 17 16 15 14 15 15 14 16 19 19 19 18 18 19 19 18 19 20 21 21 22 23 24 24 24 25 25 24 24 24 25
1 3 3 1 1 2 2 1 2 2 2 2 2 2 4 6 5 2 6 15 6 3 2 2 3 1 2 7 12 14 14 16 17 19 18 18 19 18 17 19 21 23 24 24 24 23 23 21 19 19 18 18 18 19 19 15 12 15 17 17 17 19 18 16 16 18 19 18 16 16 17 17 16 16 18 19 19 19 18 19 20 20 20 21 21 21 22 23 24 25 26 26 25 24 24 24 25
1 4 4 2 1 1 2 1 2 1 1 1 1 4 3 2 1 1 10 14 6 2 1 0 1 1 5 7 11 12 13 15 15 16 16 15 16 18 19 21 23 24 24 24 25 24 23 23 22 21 20 20 20 22 22 17 12 14 18 17 15 18 20 19 19 21 21 20 18 16 18 19 17 18 20 19 19 21 21 20 21 22 21 21 22 21 21 23 25 27 28 27 26 25 25 25 25
2 4 4 4 2 1 2 2 2 1 1 2 4 4 0 1 1 6 13 8 1 2 2 1 2 4 7 7 9 11 11 14 14 15 15 13 15 19 21 24 25 24 22 22 24 24 24 25 25 25 24 24 23 23 23 20 16 14 17 18 16 16 18 19 19 19 20 21 20 18 19 18 16 20 22 20 21 21 22 24 24 24 24 23 22 21 22 23 25 27 27 27 26 27 27 26 26
3 4 4 4 3 2 1 2 3 1 2 2 5 2 0 1 2 7 5 1 2 3 4 2 3 7 8 6 7 8 10 12 13 13 12 12 15 18 19 23 25 23 22 24 25 25 25 25 25 25 26 25 25 24 24 24 19 15 16 17 17 16 15 17 19 19 19 21 22 19 18 17 16 20 21 21 22 22 23 25 25 25 26 26 23 22 23 24 25 26 26 27 27 28 29 27 27
2 3 4 4 2 3 1 2 2 1 2 1 2 1 2 2 4 8 2 3 0 3 5 4 6 7 7 6 5 6 8 10 10 11 14 15 15 16 17 20 23 22 23 24 25 25 25 24 24 24 24 24 25 25 25 25 20 17 17 17 18 20 19 19 21 22 23 24 23 20 20 20 17 19 22 22 21 21 23 25 25 26 26 27 25 24 24 25 26 26 25 26 27 28 28 27 28
2 2 3 3 1 3 1 1 1 2 1 1 1 3 6 7 12 9 4 2 1 1 6 5 7 7 5 5 5 6 8 8 10 12 15 14 13 16 17 19 23 22 21 23 23 23 23 22 22 22 22 23 24 25 26 25 18 18 23 23 22 22 22 22 24 25 26 26 25 23 23 24 20 20 23 22 20 20 23 26 27 27 27 27 26 26 25 26 27 26 26 26 27 28 28 27 28
2 1 1 1 3 3 2 2 1 1 1 0 2 5 6 10 14 6 5 2 1 3 8 6 7 6 5 5 5 7 8 10 12 14 14 12 12 16 18 20 24 23 20 22 22 21 21 21 21 20 20 20 21 24 26 23 18 19 25 27 25 23 23 24 25 25 27 28 27 25 26 25 23 23 23 21 19 20 22 27 30 30 30 27 26 27 27 28 28 27 27 28 29 29 28 28 28
1 0 0 0 2 2 3 2 1 3 2 0 3 6 6 6 7 2 4 1 3 8 9 7 7 5 5 5 6 8 9 11 14 13 13 15 17 19 20 21 24 24 21 22 21 20 20 20 20 19 18 16 15 17 21 19 18 21 24 25 24 21 22 23 24 25 28 30 28 25 25 24 22 22 21 20 21 22 25 30 31 30 29 26 27 28 29 30 29 28 27 28 30 29 29 28 28
2 1 2 1 2 1 3 2 0 1 2 1 4 5 6 7 3 4 3 1 3 8 10 8 8 7 6 6 7 8 8 10 13 13 14 18 21 22 22 22 23 25 23 21 21 21 19 19 18 17 15 13 11 13 16 18 19 21 23 23 22 21 21 20 21 22 24 27 27 24 23 23 22 21 20 19 21 24 27 30 30 29 29 29 30 30 30 30 28 28 28 28 30 30 30 29 28
1 2 1 2 2 1 1 2 1 2 1 3 6 5 4 4 2 3 1 1 2 6 9 9 8 7 7 6 7 7 8 9 11 14 17 20 24 25 25 24 23 24 23 21 20 20 18 18 18 15 13 12 11 14 17 19 20 21 22 22 22 23 22 20 20 20 20 24 26 25 24 25 25 23 22 21 21 24 27 30 31 31 32 32 32 32 31 30 28 28 29 30 30 30 31 30 30
1 1 1 1 2 2 1 2 2 1 1 4 7 8 10 8 4 2 3 4 2 6 9 11 9 7 6 6 7 8 8 8 11 14 19 24 26 27 27 25 24 23 23 22 21 20 18 18 17 13 13 13 12 14 17 19 19 19 20 21 22 23 23 21 21 20 20 23 26 27 26 27 27 25 24 22 22 25 28 30 32 33 34 33 33 33 31 30 28 27 30 31 29 30 32 32 32
3 3 2 1 2 4 4 1 2 2 2 5 7 9 15 15 11 11 8 5 5 10 11 12 11 9 8 7 8 9 8 10 12 13 16 23 27 28 28 26 25 24 23 22 20 20 18 16 15 13 14 15 14 14 17 18 19 18 19 19 21 22 22 21 21 21 22 23 25 27 27 28 27 25 25 25 24 26 28 29 30 32 35 34 33 32 31 30 29 29 32 32 30 31 32 33 33
4 3 2 1 3 4 3 1 1 1 3 7 10 11 15 16 13 14 12 5 6 11 11 11 10 10 9 8 9 9 10 11 10 9 12 18 24 27 27 27 26 25 24 21 20 20 18 15 14 15 16 17 16 16 17 19 19 19 19 19 20 21 21 20 21 22 23 23 25 26 26 26 24 24 28 29 26 26 27 27 27 29 32 33 32 31 31 31 31 31 33 33 33 32 32 33 32
4 3 2 2 3 5 1 3 2 0 4 8 9 11 16 16 14 15 13 5 6 11 12 13 12 10 9 10 11 11 12 10 6 7 10 15 20 23 25 27 26 24 23 21 20 20 18 15 15 16 18 18 18 19 19 20 21 21 22 21 21 21 21 21 21 22 21 23 25 25 24 24 23 25 29 29 27 26 27 27 28 29 29 29 29 30 31 32 33 33 33 34 35 34 33 31 31
3 3 2 1 3 6 0 4 1 2 3 7 5 8 15 15 15 15 12 9 11 13 14 15 14 12 10 11 14 13 10 7 5 7 9 12 16 20 23 25 25 24 23 21 19 19 18 16 15 16 19 21 20 20 20 21 23 23 24 24 23 23 23 23 23 21 21 22 24 23 22 22 23 26 27 28 28 28 28 28 29 31 30 29 29 30 32 33 33 34 35 36 34 33 32 31 30
1 1 1 2 2 4 2 4 2 3 4 6 4 7 13 14 16 17 16 13 14 15 15 15 13 12 12 13 13 12 10 9 8 9 10 12 14 18 20 21 24 23 22 21 19 18 18 17 17 16 20 23 22 21 22 23 24 24 24 24 24 25 25 25 23 22 22 22 23 22 22 22 25 27 26 27 27 27 27 28 30 32 32 31 31 32 33 34 35 35 37 38 34 30 30 32 27
3 2 3 3 1 2 3 1 3 4 3 5 6 9 11 12 15 18 17 12 12 15 15 14 12 14 16 15 12 11 12 12 10 9 9 11 13 16 19 20 22 21 20 21 20 19 19 19 19 17 20 25 23 23 25 25 24 23 24 24 25 25 25 25 23 23 23 23 23 23 24 26 28 28 26 26 26 26 27 28 30 32 33 33 33 33 35 36 37 38 38 39 37 31 28 29 24
3 5 6 4 3 4 3 3 2 4 3 2 6 10 8 9 12 14 8 3 9 12 11 12 13 15 15 14 13 13 14 13 11 9 9 11 14 17 19 19 20 20 21 22 22 21 19 20 20 18 21 26 25 25 27 27 26 25 24 23 24 23 22 23 24 24 25 25 26 26 27 29 29 27 26 26 26 27 28 29 30 32 33 35 34 33 37 38 39 40 39 38 38 34 31 26 22
3 6 9 9 7 4 1 3 5 4 2 1 3 7 5 4 7 9 3 2 10 8 6 12 13 11 11 11 13 12 12 13 12 9 7 11 14 16 17 18 20 21 22 21 22 21 19 19 20 19 23 26 27 28 28 28 28 27 26 25 25 23 22 24 25 26 28 28 28 28 29 28 28 27 26 27 27 28 29 29 30 31 32 35 35 35 38 40 40 40 38 37 36 35 35 28 22
3 2 6 9 5 1 2 0 2 4 3 1 1 5 7 3 7 10 7 8 14 10 8 13 13 10 8 9 10 9 9 10 9 9 8 10 13 14 16 19 21 22 21 20 20 20 18 19 20 21 25 27 28 30 29 28 29 28 28 28 28 26 25 25 25 27 29 29 29 29 28 27 26 27 27 27 29 30 30 29 29 31 33 35 36 37 39 40 41 40 39 38 36 34 34 29 24
1 1 1 5 5 4 4 3 3 3 5 2 4 3 7 7 7 9 9 10 15 13 11 14 13 10 9 8 8 7 7 6 6 7 9 10 12 14 16 19 21 21 20 19 20 20 19 20 20 22 27 29 28 30 30 29 30 30 29 29 29 28 27 27 27 28 29 29 30 29 29 28 27 28 29 30 31 31 30 29 29 32 34 35 35 37 39 39 40 41 39 38 35 32 32 29 28
1 1 1 4 4 3 4 2 3 1 5 5 5 6 6 7 3 3 4 7 11 12 11 12 10 7 6 5 5 4 3 4 5 6 7 8 11 14 16 17 18 19 18 19 19 19 20 21 21 24 28 29 29 30 31 31 30 30 29 29 28 26 26 28 29 29 29 30 30 30 29 29 29 29 30 31 30 30 29 28 29 31 32 33 34 36 38 39 39 40 39 38 34 32 31 28 28
2 5 5 6 5 4 3 1 1 1 5 5 7 9 6 7 3 5 2 5 8 8 7 8 7 5 3 2 2 2 2 2 3 4 5 6 9 11 13 13 15 17 17 19 19 18 20 21 22 25 28 29 29 30 31 31 30 30 29 29 28 26 26 27 28 28 30 31 31 31 30 30 31 31 31 29 28 29 29 29 29 30 30 31 33 35 37 38 38 39 38 36 32 31 30 27 26
7 7 5 6 4 3 2 0 1 2 6 3 8 12 7 6 3 6 4 2 3 4 4 5 4 3 0 2 2 1 1 1 1 2 3 4 5 7 10 12 14 16 16 18 18 18 20 21 23 24 26 28 30 31 31 31 30 31 31 30 29 28 27 27 28 29 30 31 31 31 32 32 33 33 32 29 29 29 29 29 29 30 30 31 33 35 36 37 37 37 35 34 31 29 29 26 25
4 3 3 3 2 1 1 1 2 5 7 1 3 6 6 7 5 3 2 2 2 4 4 5 5 3 2 3 1 0 1 1 1 2 2 3 4 6 9 11 14 15 16 18 19 18 20 21 22 23 24 28 31 31 32 32 32 32 31 29 28 28 27 28 30 32 32 33 33 33 32 32 33 33 32 31 31 31 30 30 30 30 31 32 33 34 36 36 35 35 34 32 30 28 27 26 25
2 3 5 4 3 2 4 3 3 6 5 1 1 2 4 10 8 5 8 8 8 7 6 7 7 6 2 4 3 1 1 2 1 2 2 4 5 7 10 11 13 16 17 18 19 20 21 21 22 23 23 28 31 32 33 34 33 33 32 29 28 28 28 30 33 34 34 35 35 35 34 34 33 33 33 33 32 32 31 31 31 31 32 33 34 34 35 34 34 34 33 32 30 28 26 26 26
7 7 7 6 5 4 5 3 1 5 3 3 4 3 5 9 6 10 16 15 11 7 7 9 8 9 7 3 4 2 2 2 2 3 3 4 5 7 10 12 13 15 17 18 20 21 21 20 23 24 22 26 31 33 33 34 34 34 32 30 29 29 29 31 35 35 35 36 37 37 37 36 36 36 36 35 34 33 32 32 32 32 33 33 34 34 34 34 34 34 32 30 29 27 27 27 26
7 4 3 5 5 4 5 3 2 4 2 2 4 3 5 5 1 4 10 9 7 6 7 7 7 10 9 3 4 4 3 3 3 4 5 5 6 8 10 11 13 15 17 19 20 21 21 21 23 25 23 26 32 32 34 36 35 34 33 31 31 31 30 31 33 34 35 38 39 38 37 37 37 37 37 36 35 35 33 32 33 33 34 34 34 33 33 33 33 32 31 30 29 28 28 27 25
3 1 1 5 4 2 1 1 0 1 3 2 4 4 6 3 3 4 5 4 5 6 6 6 9 12 9 7 6 5 4 5 4 5 5 6 7 8 10 11 13 15 17 19 20 22 22 21 23 25 24 27 32 33 34 36 36 36 34 32 32 33 32 31 31 31 35 38 38 38 37 37 38 37 37 37 36 35 34 33 34 34 34 34 34 33 33 33 33 32 31 31 30 29 28 26 25
4 3 4 3 1 1 1 1 2 2 5 5 4 6 6 3 6 8 7 7 7 5 5 8 11 11 10 9 4 4 4 6 5 5 5 6 7 8 10 12 14 16 17 19 21 22 22 22 22 24 24 25 31 33 33 35 36 35 34 33 33 34 32 32 31 32 34 36 37 37 38 38 37 37 37 36 36 35 35 34 34 34 34 34 34 34 34 34 34 33 32 31 30 29 27 26 24
4 5 6 3 2 1 2 4 1 3 7 5 3 8 7 4 5 2 4 7 10 9 9 11 11 10 10 9 2 3 5 6 5 5 4 5 7 9 11 12 14 17 17 19 21 21 21 21 21 24 25 25 29 33 33 35 36 35 35 34 34 34 33 33 34 33 34 36 37 38 37 37 37 36 36 36 36 36 35 35 35 35 35 35 35 35 35 34 34 33 32 31 29 28 27 25 23
1 1 3 2 2 4 4 5 4 5 6 4 3 6 6 7 7 3 6 9 11 12 11 11 12 12 11 7 3 4 5 5 5 5 4 5 8 10 12 13 14 16 17 18 20 19 20 21 21 23 24 23 27 33 34 34 36 36 35 34 34 34 34 33 34 34 34 36 39 39 37 37 36 37 37 38 38 37 37 36 36 36 36 36 36 35 34 34 33 32 31 30 28 27 26 25 24
2 0 2 1 3 3 4 3 2 4 5 4 4 5 6 8 7 7 11 12 11 12 10 10 12 12 9 5 4 6 5 5 6 5 5 5 7 10 12 13 15 16 17 17 18 19 20 21 21 22 23 22 25 32 34 35 36 36 35 34 34 34 35 34 34 35 34 36 39 39 38 38 37 37 38 38 39 38 37 37 36 36 36 36 35 34 33 33 32 31 30 29 27 26 25 25 24
6 6 7 5 2 0 2 2 1 2 4 3 3 6 9 5 5 8 12 10 11 11 9 8 8 8 6 4 4 6 6 6 5 5 4 4 6 8 10 12 14 15 16 16 18 19 20 21 22 23 24 24 26 30 33 35 35 35 35 35 35 35 35 34 33 34 35 37 39 39 39 38 38 39 39 39 40 39 38 37 37 36 36 35 35 34 33 32 31 30 29 28 27 26 25 25 24
8 8 10 10 8 5 4 4 2 1 3 3 2 7 11 4 3 6 8 6 5 6 6 7 6 5 4 2 4 6 6 5 4 3 4 4 5 7 9 11 13 14 16 17 18 19 21 22 23 23 24 27 30 31 33 35 35 36 36 35 35 35 35 35 34 34 35 37 38 39 39 38 39 40 41 41 41 40 39 38 37 37 36 34 34 33 32 31 30 29 28 27 27 26 25 24 23
Wind_Direction
345 337 207 167 162 165 50 340 207 70 317 56 97 147 137 101 357 207 166 154 161 121 119 109 142 143 135 352 16 31 15 308 351 339 43 69 117 134 147 166 161 157 155 156 150 143 139 136 133 129 132 137 133 128 125 121 119 120 122 121 119 117 114 110 106 102 98 95 91 90 85 79 74 68 63 61 61 62 64 66 68 71 72 75 81 85 88 88 87 88 89 89 86 82 77 74 72
339 340 157 140 149 217 124 297 286 87 272 109 136 2 102 148 207 178 155 162 70 86 121 127 137 127 27 6 22 150 100 25 16 34 68 97 126 125 141 158 157 156 158 158 151 148 146 142 139 135 135 138 141 138 129 124 123 123 123 121 119 117 115 112 109 105 101 98 94 92 88 82 76 69 65 63 63 66 68 69 71 74 75 78 82 85 88 89 90 91 91 90 88 84 80 76 74
330 157 148 124 109 216 122 236 297 86 299 65 128 123 123 175 174 141 107 88 85 100 125 122 140 132 277 237 217 254 96 74 80 88 100 136 139 131 140 144 149 155 159 160 158 154 149 148 142 136 138 142 145 145 138 132 129 128 125 121 117 117 116 113 110 107 103 99 96 93 89 85 79 71 66 64 64 67 71 72 74 77 78 80 83 85 87 91 93 92 91 88 88 85 81 77 75
318 193 200 236 187 155 132 9 22 308 336 40 111 137 169 179 142 105 98 108 107 121 128 145 164 74 278 248 126 286 98 100 124 114 127 152 143 129 148 145 145 156 160 163 162 156 153 155 146 139 142 145 147 147 143 140 140 135 127 124 122 120 117 115 112 108 104 99 95 91 88 86 79 72 69 65 64 68 75 77 77 80 81 82 84 86 89 93 94 93 92 90 89 84 81 79 78
40 131 221 250 239 74 82 84 104 281 24 37 46 140 178 164 131 120 125 132 135 168 110 191 178 83 276 295 7 272 107 107 132 170 130 144 144 135 159 146 145 160 160 163 164 156 158 158 150 145 146 146 150 151 146 145 151 145 134 131 127 125 121 117 115 110 104 99 95 91 90 88 80 74 71 67 66 69 78 82 81 82 83 85 86 88 92 94 95 95 95 93 91 87 86 85 83
74 73 85 92 99 55 179 134 149 270 38 344 24 135 164 151 139 134 141 158 176 256 278 246 246 137 185 112 290 311 55 110 136 158 143 146 159 165 165 150 153 166 162 165 166 160 161 159 154 150 149 147 148 151 149 148 154 154 145 139 133 130 127 120 116 110 105 101 98 95 94 89 81 76 73 70 69 73 80 85 85 84 85 87 89 91 94 94 94 95 96 94 92 92 92 91 87
127 84 73 87 107 310 240 76 96 113 66 337 4 118 151 147 142 142 155 181 194 225 224 236 253 199 149 118 211 167 347 280 124 155 162 155 158 169 167 159 165 170 168 167 166 166 164 160 157 155 154 149 145 147 148 149 152 157 152 147 142 134 130 125 119 115 110 107 105 100 96 90 83 79 77 74 72 77 82 86 87 86 86 88 91 93 95 95 92 92 93 94 94 95 93 91 88
343 25 317 176 106 8 310 102 76 72 71 307 319 67 132 140 152 161 168 186 189 178 193 182 215 243 117 152 196 133 238 235 182 179 170 158 151 160 158 160 168 171 172 169 169 170 167 165 164 161 158 154 150 148 149 153 154 156 153 151 147 137 134 130 125 123 118 115 111 106 101 94 88 83 81 78 76 79 84 89 90 88 88 89 92 94 94 95 93 93 96 98 98 96 96 93 89
34 21 234 190 121 79 114 126 104 87 121 204 252 234 132 144 171 184 180 193 196 180 187 158 210 282 130 176 114 118 217 213 205 188 174 162 149 158 155 161 169 170 174 173 171 171 172 171 169 165 161 162 160 154 153 157 158 155 152 152 149 142 140 136 133 130 125 120 115 113 108 100 93 88 85 83 80 82 84 89 93 93 91 92 94 95 95 95 95 95 100 102 100 97 97 95 91
35 20 179 130 161 175 142 192 142 140 152 179 241 195 181 169 189 204 196 199 184 191 154 123 230 269 150 174 117 122 184 186 197 189 179 167 156 164 157 165 173 171 175 177 176 174 174 175 174 170 167 171 168 163 159 160 160 156 154 155 154 150 148 143 139 135 130 123 119 119 112 103 96 91 89 87 85 86 87 88 93 97 97 97 97 98 97 97 96 97 104 107 104 100 99 97 95
116 59 298 161 176 201 194 189 165 150 134 196 221 185 170 172 189 193 208 214 178 202 146 162 217 174 178 185 121 121 161 180 187 184 180 170 164 167 164 171 175 176 178 178 182 179 176 179 181 176 175 177 174 170 165 164 164 160 156 157 161 158 153 149 146 143 138 131 130 128 118 108 99 94 92 91 90 89 90 90 91 94 98 102 103 103 101 100 101 103 109 109 107 104 102 100 98
200 127 215 193 187 222 212 188 170 153 163 210 180 161 160 174 191 192 205 216 179 203 186 189 210 147 189 185 123 122 155 178 173 176 177 170 169 171 174 173 170 176 181 181 181 184 186 186 185 182 184 183 177 174 171 169 168 168 163 162 168 166 160 156 155 151 146 145 142 134 124 115 106 101 98 96 96 94 93 94 95 95 97 100 104 105 105 105 107 109 111 109 106 105 102 102 102
270 157 200 182 37 4 143 177 154 149 207 205 165 137 154 176 197 206 193 203 189 199 194 171 142 236 220 115 115 145 168 175 169 174 172 171 175 178 178 172 175 176 178 184 180 184 195 196 188 185 191 188 182 178 177 174 172 179 175 172 175 173 169 164 161 157 153 152 148 141 131 122 115 109 104 103 102 100 97 97 99 101 102 104 106 107 108 110 110 109 106 104 103 104 105 105 107
5 162 228 153 75 162 154 134 156 206 203 163 136 129 165 190 211 220 188 207 202 185 128 116 165 238 216 150 155 170 169 170 174 177 172 171 170 175 175 172 182 183 185 189 184 183 191 199 197 192 195 192 190 187 183 179 179 183 185 183 181 179 177 170 165 163 160 156 153 148 138 129 123 115 110 110 109 106 103 102 102 105 108 109 110 110 111 111 109 106 104 103 103 103 105 108 110
137 138 54 122 136 170 182 259 173 216 194 148 146 139 172 211 345 213 212 225 191 94 71 151 240 268 210 197 154 132 154 164 171 171 169 169 169 171 174 179 183 185 194 193 189 191 187 195 201 197 198 195 195 193 188 186 183 183 187 188 186 185 181 175 172 169 166 161 159 154 144 136 130 122 116 115 114 112 108 108 107 107 110 112 114 114 113 112 110 109 107 105 104 103 103 105 108
43 141 106 143 165 191 192 211 166 215 188 143 136 141 176 168 157 217 256 303 113 110 217 180 199 281 333 349 69 98 145 159 163 164 165 166 173 175 174 180 185 192 201 196 190 193 194 194 196 197 200 201 200 198 195 191 188 186 189 189 188 189 186 183 180 175 170 167 165 159 149 143 138 129 122 122 121 119 115 113 112 112 113 115 116 116 114 112 110 109 107 106 104 102 101 101 102
276 203 181 181 182 197 181 178 175 195 163 140 142 170 187 168 165 239 44 286 223 142 222 203 171 257 325 57 76 123 152 159 161 162 162 164 172 177 179 177 180 194 198 192 188 192 198 196 199 205 206 207 206 208 205 200 195 189 191 192 190 191 190 190 187 180 176 173 170 165 156 150 147 139 132 132 130 126 123 120 117 116 116 117 117 115 113 110 109 108 107 105 104 103 101 100 99
247 199 196 207 181 184 178 182 180 111 170 163 166 186 198 182 163 169 172 205 211 190 214 209 215 230 220 108 112 150 159 162 167 168 167 172 175 175 184 180 177 188 190 187 185 190 194 193 202 210 210 213 216 213 204 205 204 193 193 195 194 196 193 193 192 186 184 180 176 172 166 162 155 148 145 142 138 134 131 129 123 120 121 121 118 115 113 112 111 110 109 107 105 104 102 100 99
241 147 213 216 161 140 169 181 164 8 275 156 159 183 211 202 156 162 206 194 182 226 218 202 230 220 192 173 161 159 165 171 176 180 180 182 185 180 182 183 182 188 195 195 189 190 190 191 200 202 205 214 225 221 201 202 210 205 202 197 197 201 198 197 196 194 192 187 183 181 175 173 164 156 156 152 147 142 138 137 132 127 127 127 123 118 116 115 113 112 111 109 107 104 101 100 99
201 205 224 196 107 90 98 181 141 20 322 158 152 154 220 215 137 164 215 208 188 229 227 204 229 222 189 172 167 166 172 181 186 190 192 193 192 189 189 191 191 188 197 204 199 198 197 199 202 200 203 212 223 229 220 216 219 218 212 202 202 203 202 200 198 199 200 192 188 186 182 178 171 164 162 158 152 147 145 145 140 134 131 130 125 119 116 115 114 113 112 110 108 105 103 101 100
147 250 251 75 75 134 113 189 116 37 316 167 137 141 198 151 140 194 200 217 222 232 232 225 238 228 172 161 165 170 177 186 193 197 200 202 197 195 196 196 195 193 198 202 201 202 203 206 206 205 205 209 219 224 227 227 219 213 211 208 207 205 207 205 202 206 205 196 191 190 187 183 177 172 166 162 159 153 154 153 144 140 135 131 128 121 119 118 117 117 114 111 109 107 106 104 101
119 16 351 66 240 94 101 183 144 158 342 140 145 163 177 127 183 215 205 225 234 238 231 233 251 274 128 160 167 170 181 189 195 202 205 204 200 198 196 192 191 194 197 197 197 202 204 207 207 208 207 209 218 220 220 225 215 207 212 216 213 211 214 210 208 212 206 195 193 194 192 187 182 179 172 169 168 161 162 164 154 149 143 136 133 129 126 125 123 122 119 115 113 111 108 106 103
144 114 110 125 324 41 92 136 156 200 181 164 170 161 137 160 209 209 221 235 236 60 47 314 311 36 104 161 165 174 187 192 197 203 205 205 202 199 196 192 192 192 195 197 200 204 204 208 210 212 213 213 222 223 219 222 217 213 219 218 209 209 214 214 215 214 207 200 199 198 196 194 190 184 180 177 175 171 174 176 167 158 150 141 137 135 133 132 129 127 125 121 118 113 109 106 102
262 126 136 152 1 4 39 67 152 207 215 162 121 151 164 202 218 90 234 242 235 99 76 357 341 52 167 170 176 188 191 193 201 204 206 210 207 202 197 195 197 196 198 203 207 210 211 215 219 219 220 219 225 228 224 224 223 220 223 218 204 204 211 219 223 217 210 210 206 202 201 199 196 190 186 184 181 181 187 185 175 165 157 149 144 142 139 138 136 133 129 125 121 116 112 109 104
47 115 136 141 72 4 59 126 163 194 249 94 145 184 191 225 245 306 247 247 232 166 131 270 302 187 200 199 195 195 193 197 201 205 209 214 212 206 202 199 201 202 204 208 210 214 217 222 227 229 229 228 230 231 228 227 227 224 225 223 213 209 214 220 223 214 211 213 206 204 207 203 200 196 189 189 187 185 187 188 180 170 164 158 151 149 148 146 142 137 131 126 122 119 117 113 107
56 106 134 133 116 90 115 159 147 183 179 166 203 183 145 351 345 263 248 250 121 143 193 185 227 220 217 213 207 200 197 200 199 203 209 212 212 210 209 207 207 209 209 211 213 217 221 225 229 232 234 236 238 234 230 229 228 227 227 225 219 215 215 216 217 213 217 217 206 204 207 204 199 195 191 191 195 193 187 184 180 172 167 164 159 157 155 151 145 140 134 129 126 123 120 116 109
79 107 115 99 108 120 152 167 121 179 148 192 229 183 39 48 270 251 237 22 52 196 206 187 226 233 229 221 217 213 209 206 200 200 202 204 208 208 210 210 211 213 214 217 220 224 228 230 231 233 235 237 238 236 232 228 225 226 225 225 225 226 224 219 219 220 226 224 213 207 203 199 196 198 199 196 196 195 187 183 179 175 170 166 164 162 158 153 147 144 139 134 130 126 122 118 112
82 134 131 79 78 120 128 158 100 285 145 170 261 231 263 108 234 244 124 70 113 217 218 208 229 237 236 232 227 224 225 217 201 201 205 203 204 204 205 207 209 211 214 217 220 224 228 230 232 233 234 234 235 234 231 226 223 225 224 226 231 236 239 238 236 232 230 227 224 221 208 197 195 199 201 200 197 195 190 186 184 181 174 168 167 164 159 154 151 147 143 137 133 129 125 121 115
97 160 160 95 146 154 122 102 42 303 138 133 272 260 239 200 230 237 107 113 138 230 240 226 232 239 237 234 237 233 231 222 210 215 216 208 204 203 204 208 208 208 212 215 217 222 225 228 232 235 237 237 235 231 230 225 221 226 225 227 234 239 239 237 238 235 228 226 227 226 213 202 203 201 197 198 201 199 196 191 189 186 178 172 168 163 159 156 152 147 143 138 135 132 127 122 118
129 104 329 131 217 188 113 69 47 234 136 120 244 267 242 205 230 228 99 138 189 249 246 234 235 239 238 231 237 240 231 224 222 223 218 210 209 209 209 213 213 210 212 216 219 223 226 231 235 239 242 240 236 228 226 222 219 227 226 226 231 233 232 233 237 235 226 226 225 221 213 208 211 205 192 192 199 203 202 196 191 186 180 174 167 164 161 157 152 148 147 142 137 133 127 123 119
107 125 348 178 245 150 103 85 179 201 151 99 229 257 266 231 228 148 79 183 224 258 255 244 240 234 239 235 237 244 235 228 230 229 222 220 221 219 215 216 218 215 214 218 221 224 230 236 238 241 242 234 228 222 218 214 216 225 223 220 222 225 232 238 238 230 222 222 220 213 211 210 210 203 192 191 198 203 202 195 189 183 180 177 171 168 163 158 154 151 152 148 141 136 130 125 121
51 237 177 119 254 169 99 95 223 227 91 169 223 248 269 268 264 76 47 184 192 254 260 256 251 242 239 238 241 246 244 235 234 233 228 228 228 225 221 219 220 217 216 218 221 225 230 236 237 236 232 217 210 209 207 206 211 220 218 215 219 226 234 231 221 215 213 214 211 208 211 211 209 205 200 199 202 203 198 190 184 182 182 178 174 170 166 161 158 155 155 155 148 140 133 127 123
60 273 213 145 225 274 56 99 43 341 60 208 232 262 275 272 327 66 78 161 180 254 267 264 255 247 243 241 241 245 248 242 236 232 227 229 230 228 225 222 221 219 217 217 220 225 227 231 232 225 215 203 202 204 203 206 210 217 217 215 217 219 221 218 213 212 213 214 210 208 212 212 210 206 201 203 202 199 194 188 184 184 182 178 175 171 168 164 163 161 157 157 153 145 137 130 125
158 237 250 205 226 265 254 129 92 37 265 226 226 251 259 259 277 264 191 156 206 258 266 269 264 253 244 239 241 243 245 241 237 229 222 227 229 228 227 223 222 220 218 218 220 224 223 225 224 213 203 200 203 203 202 206 209 214 216 216 215 210 210 213 217 217 219 220 214 213 215 211 206 202 198 198 197 192 192 191 186 182 179 177 175 171 168 166 167 167 159 154 153 146 139 133 128
162 180 208 204 216 230 252 242 132 161 222 234 227 242 257 260 261 264 249 190 227 262 265 269 268 261 254 245 243 242 238 240 239 225 217 225 228 227 226 223 221 219 218 218 218 221 219 217 213 204 201 202 206 204 201 204 204 207 210 210 210 207 207 210 215 217 220 221 216 214 213 205 202 203 197 193 194 191 189 189 183 178 176 174 174 170 168 168 170 168 162 156 152 146 141 134 129
132 154 187 192 235 244 240 155 115 205 238 242 239 248 262 264 262 267 262 203 220 261 263 264 262 257 255 248 246 241 237 241 235 212 211 223 226 225 223 220 219 217 216 213 212 218 214 207 204 201 202 202 202 201 200 201 199 201 205 207 207 208 211 212 215 217 215 215 213 209 203 199 203 206 198 190 190 189 184 183 180 176 174 173 174 174 173 173 173 170 164 159 152 145 139 133 130
107 127 166 182 254 270 218 106 84 221 256 253 242 254 268 272 270 269 266 236 234 253 252 254 252 247 247 246 247 243 239 241 224 206 213 219 224 224 220 217 214 212 212 208 207 213 209 201 198 199 202 200 199 200 199 200 199 198 200 204 208 210 212 212 211 213 212 211 211 205 200 201 205 203 194 186 185 185 181 179 177 174 175 177 180 181 179 176 174 171 164 157 153 146 139 133 133
109 168 214 198 235 265 277 92 112 162 237 262 246 259 268 271 274 272 266 255 255 253 247 250 250 245 243 243 247 246 244 242 221 214 206 202 212 215 214 212 208 206 205 203 202 206 204 199 197 198 202 199 200 204 200 200 202 200 200 203 207 207 206 204 205 208 208 208 207 201 198 201 201 194 188 185 183 184 183 180 179 178 179 183 183 181 179 176 175 171 163 156 152 149 144 140 139
139 157 207 238 236 272 293 89 105 172 222 269 277 271 268 269 275 273 264 255 257 256 250 253 258 256 251 245 245 245 247 244 229 216 197 191 197 202 206 206 205 204 201 200 199 200 199 199 199 199 201 199 200 204 200 200 202 203 205 205 204 202 199 198 201 204 200 198 198 194 193 195 193 188 184 185 185 187 186 183 183 182 181 182 179 177 177 176 175 171 166 160 154 151 149 150 150
197 177 202 235 171 273 262 113 116 174 216 298 300 284 269 261 264 265 261 254 258 261 258 258 255 253 253 251 250 249 249 249 236 217 191 185 189 195 201 201 201 200 197 198 197 196 197 199 200 198 199 200 201 202 201 201 202 202 205 204 200 199 196 195 196 197 194 192 193 192 193 192 188 186 184 185 189 191 191 187 184 183 183 182 178 177 179 180 177 171 169 167 162 156 154 159 160
206 209 218 229 219 223 248 345 346 207 193 310 293 286 266 236 243 256 260 255 262 261 261 261 248 243 249 255 257 252 250 251 243 225 184 179 193 198 201 198 196 196 196 197 195 195 197 199 200 199 200 202 202 203 202 202 201 200 199 195 193 193 194 193 191 192 192 194 194 193 192 189 186 187 186 188 192 193 192 189 184 183 183 183 180 181 183 183 180 175 175 175 171 165 161 167 168
224 215 218 230 238 227 219 0 336 276 240 133 296 296 276 191 224 253 260 266 265 253 244 259 253 239 235 245 253 247 244 247 247 241 197 185 198 198 197 195 194 197 199 197 195 196 196 198 200 199 201 202 204 205 204 204 203 199 196 190 186 186 187 191 195 198 198 196 194 191 189 187 187 188 188 190 191 189 187 182 180 182 184 185 183 184 185 183 181 181 183 181 177 173 168 168 171
238 213 218 226 230 207 203 209 289 285 299 192 202 290 285 242 221 242 251 263 268 262 252 262 261 251 235 236 247 241 240 243 241 241 220 200 198 194 194 195 196 199 199 194 194 196 197 199 201 200 202 204 206 207 206 206 205 201 199 196 194 192 193 198 201 203 200 195 190 187 187 187 188 189 188 188 187 184 181 180 182 185 187 189 188 188 186 184 185 186 186 182 180 180 174 168 170
223 52 189 192 180 192 198 187 226 282 326 269 174 194 279 274 225 229 241 257 269 268 262 263 261 258 252 249 256 252 249 245 231 229 223 211 201 196 198 198 198 200 195 191 192 195 199 201 201 201 204 207 208 208 207 206 206 203 200 199 200 201 202 202 199 198 195 191 188 187 186 187 188 190 187 185 184 183 184 187 190 191 192 194 193 192 189 187 188 187 185 185 185 185 181 177 177
358 55 104 136 148 167 154 171 227 316 328 278 171 157 261 277 202 180 221 241 262 264 258 261 263 264 265 270 280 287 278 257 242 235 223 211 204 202 202 198 197 196 191 189 190 192 198 202 201 201 205 209 209 209 208 207 208 207 203 201 202 202 201 198 194 193 193 190 189 188 187 187 187 188 187 185 186 188 192 195 195 195 196 197 195 194 191 189 190 188 187 188 189 188 187 187 183
132 138 101 91 87 81 101 206 198 109 282 260 165 170 250 283 200 155 171 227 249 258 256 261 273 285 297 328 329 321 317 278 251 245 229 215 206 202 199 193 190 190 189 189 188 189 196 200 200 201 205 209 210 210 209 207 208 207 204 203 202 199 197 195 193 192 191 189 188 188 187 187 186 186 187 189 193 195 197 198 198 197 197 197 195 193 191 189 189 188 189 191 192 192 191 192 188
143 146 105 91 86 72 85 40 80 226 262 238 164 182 225 283 223 170 174 199 228 245 257 264 278 287 332 65 33 346 315 297 243 235 222 203 196 189 188 188 187 186 186 187 187 190 197 201 201 200 203 207 209 210 209 207 207 206 203 202 201 201 200 199 195 192 190 188 187 188 188 187 187 188 189 192 197 199 199 199 199 197 196 196 194 192 189 188 188 189 191 193 194 195 194 194 193
152 148 128 130 135 135 162 157 140 231 249 237 171 194 218 249 234 190 238 290 265 240 246 264 273 267 141 117 112 2 310 280 229 217 199 174 177 177 182 188 186 186 186 187 191 195 199 203 200 196 199 206 209 210 209 208 207 207 206 205 205 207 209 208 202 195 192 190 190 189 189 189 189 190 191 194 198 199 198 198 197 196 195 194 191 190 189 188 189 191 193 194 195 197 197 195 192
215 163 162 197 215 197 225 210 181 236 241 121 137 186 241 251 253 270 275 270 253 235 236 258 270 270 233 138 147 193 263 266 245 220 203 187 184 176 181 187 186 188 188 189 195 199 200 203 200 197 199 205 209 209 208 209 209 209 209 210 212 214 216 214 205 199 196 195 193 192 191 191 191 192 193 195 196 196 196 195 194 194 193 191 189 189 189 190 191 192 194 196 196 196 196 192 187
195 182 176 194 198 211 232 208 198 265 257 112 140 162 246 268 267 246 246 248 247 238 237 247 261 269 262 163 150 190 219 246 251 234 222 206 195 179 179 184 186 189 189 190 197 201 201 202 203 202 200 203 208 209 209 210 211 211 211 214 217 218 218 213 204 201 200 197 196 195 195 193 193 194 194 194 194 193 193 193 193 193 191 190 189 190 191 191 193 195 196 196 194 192 190 186 182
192 189 179 201 197 210 230 214 231 269 301 133 159 172 228 251 346 241 245 260 265 258 251 253 264 267 264 222 192 204 217 235 234 228 231 221 202 184 179 183 186 188 189 191 198 202 203 202 203 204 201 203 208 210 210 210 211 212 214 216 218 218 218 213 206 205 204 200 198 198 197 196 195 194 193 193 193 192 191 192 192 192 191 190 190 191 192 193 194 195 193 191 188 185 183 181 177
190 98 205 229 221 196 246 306 214 325 329 236 193 229 241 235 302 266 247 270 255 248 260 266 264 261 263 257 227 195 205 227 219 219 226 221 208 192 184 185 187 188 190 194 198 201 203 204 204 205 204 204 208 211 211 211 211 212 214 216 217 217 216 210 206 208 206 202 201 199 199 199 197 195 194 193 191 190 190 191 190 190 190 190 190 191 191 191 190 189 186 184 182 179 177 175 172
157 167 202 222 338 82 174 253 85 108 266 256 211 248 266 279 274 241 215 235 239 238 249 245 249 253 257 261 238 157 193 217 213 215 210 205 205 202 195 189 188 190 191 196 199 199 201 203 204 206 206 205 209 213 212 212 212 213 214 214 215 216 215 210 209 212 210 205 203 201 199 199 197 196 195 193 190 189 189 189 188 188 188 188 188 189 188 187 185 183 182 180 177 174 173 171 170
139 185 191 138 28 337 212 237 221 198 247 261 223 249 268 273 270 214 171 230 241 243 242 236 243 246 245 252 219 153 204 212 217 218 204 205 207 204 202 196 193 193 193 196 197 195 197 200 202 206 206 203 207 212 213 213 213 213 214 215 214 215 215 214 214 215 213 207 204 203 201 200 198 196 194 192 191 189 187 188 187 186 185 185 185 185 184 183 182 180 178 176 173 171 171 169 168
102 195 165 133 219 207 185 216 228 225 240 257 246 260 266 238 239 226 203 221 231 237 236 232 239 239 238 241 192 184 208 208 221 219 202 207 210 207 202 198 197 196 196 197 195 194 196 199 202 205 205 203 205 210 212 214 216 215 216 217 216 216 216 215 215 217 215 209 204 203 203 201 199 196 193 192 191 189 188 187 186 185 185 184 184 183 182 181 180 179 176 173 171 171 171 168 167
30 177 173 203 256 215 186 186 216 233 236 258 278 283 264 225 206 216 226 225 223 227 227 227 235 238 241 236 185 185 202 210 214 208 203 205 203 207 204 199 198 196 196 197 195 195 196 198 200 201 203 203 204 209 212 214 216 217 216 217 218 218 217 216 216 218 216 208 203 203 203 202 200 197 193 191 190 190 189 187 186 185 185 184 183 182 181 180 179 178 176 174 171 172 172 169 167
176 193 188 186 182 308 260 203 145 247 236 249 279 278 269 241 162 200 223 226 223 224 226 229 237 244 247 242 200 190 196 211 214 197 194 202 202 206 205 201 198 195 195 196 195 197 198 199 202 201 202 204 205 210 213 213 215 216 215 217 219 219 218 217 216 215 212 206 203 204 203 202 200 197 193 191 190 190 190 189 188 186 185 184 183 181 180 179 179 178 176 175 173 173 173 170 168
184 194 193 193 178 159 212 209 162 267 247 227 240 270 272 263 139 201 220 220 223 222 229 233 236 243 246 236 227 221 209 205 212 209 190 187 199 203 202 202 197 194 196 197 197 199 199 201 203 202 204 207 208 211 213 213 215 215 216 219 220 219 218 216 214 212 209 207 205 205 204 202 200 197 194 192 192 192 191 190 189 188 186 185 184 182 180 180 180 179 177 176 176 176 176 173 170